When you browse on this site, cookies collect data to enhance your experience and personalize the content and advertising you see.
Visit our Privacy Policy to learn more. By continuing to use the site, you agree to this use of cookies and data.

Hourly Weather Taba

Today, 9 August, Sunday

Time Temperature Precipitation Wind Pressure Humidity
00:00 +24°C° 0 mm 3 mps 689 mmHg 52%
01:00 +22°C° 0 mm 3 mps 689 mmHg 52%
02:00 +23°C° 0 mm 2 mps 689 mmHg 51%
03:00 +23°C° 0 mm 2 mps 689 mmHg 52%
04:00 +21°C° 0 mm 2 mps 689 mmHg 53%
05:00 +21°C° 0 mm 2 mps 689 mmHg 54%
06:00 +25°C° 0 mm 3 mps 689 mmHg 44%
07:00 +28°C° 0 mm 3 mps 690 mmHg 35%
08:00 +31°C° 0 mm 3 mps 690 mmHg 24%
09:00 +33°C° 0 mm 5 mps 690 mmHg 21%
10:00 +35°C° 0 mm 6 mps 691 mmHg 18%
11:00 +38°C° 0 mm 7 mps 691 mmHg 15%
12:00 +38°C° 0 mm 8 mps 691 mmHg 14%
13:00 +39°C° 0 mm 8 mps 690 mmHg 13%
14:00 +39°C° 0 mm 9 mps 690 mmHg 13%
15:00 +37°C° 0 mm 9 mps 690 mmHg 16%
16:00 +35°C° 0 mm 9 mps 690 mmHg 19%
17:00 +34°C° 0 mm 9 mps 690 mmHg 21%
18:00 +32°C° 0 mm 7 mps 690 mmHg 25%
19:00 +29°C° 0 mm 5 mps 690 mmHg 29%
20:00 +27°C° 0 mm 2 mps 689 mmHg 33%
21:00 +26°C° 0 mm 2 mps 690 mmHg 36%
22:00 +25°C° 0 mm 3 mps 690 mmHg 40%
23:00 +24°C° 0 mm 3 mps 690 mmHg 43%

Tomorrow, 10 August, Monday

Time Temperature Precipitation Wind Pressure Humidity
00:00 +23°C° 0 mm 2 mps 689 mmHg 48%
01:00 +21°C° 0 mm 2 mps 689 mmHg 52%
02:00 +22°C° 0 mm 1 mps 689 mmHg 57%
03:00 +22°C° 0 mm 1 mps 689 mmHg 57%
04:00 +22°C° 0 mm 1 mps 689 mmHg 57%
05:00 +22°C° 0 mm 1 mps 689 mmHg 57%
06:00 +24°C° 0 mm 1 mps 689 mmHg 50%
07:00 +26°C° 0 mm 1 mps 690 mmHg 44%
08:00 +29°C° 0 mm 1 mps 690 mmHg 37%
09:00 +30°C° 0 mm 2 mps 691 mmHg 32%
10:00 +33°C° 0 mm 3 mps 691 mmHg 27%
11:00 +35°C° 0 mm 4 mps 692 mmHg 21%
12:00 +36°C° 0 mm 4 mps 691 mmHg 19%
13:00 +37°C° 0 mm 5 mps 691 mmHg 17%
14:00 +39°C° 0 mm 5 mps 691 mmHg 15%
15:00 +38°C° 0 mm 6 mps 691 mmHg 16%
16:00 +36°C° 0 mm 6 mps 691 mmHg 17%
17:00 +35°C° 0 mm 6 mps 691 mmHg 17%
18:00 +33°C° 0 mm 5 mps 691 mmHg 23%
19:00 +30°C° 0 mm 4 mps 691 mmHg 29%
20:00 +28°C° 0 mm 4 mps 691 mmHg 35%
21:00 +27°C° 0 mm 3 mps 691 mmHg 40%
22:00 +26°C° 0 mm 3 mps 691 mmHg 45%
23:00 +25°C° 0 mm 3 mps 691 mmHg 50%

Day after tomorrow, 11 August, Tuesday

Time Temperature Precipitation Wind Pressure Humidity
00:00 +24°C° 0 mm 3 mps 690 mmHg 54%
01:00 +23°C° 0 mm 2 mps 690 mmHg 59%
02:00 +21°C° 0 mm 2 mps 689 mmHg 63%
03:00 +21°C° 0 mm 1 mps 689 mmHg 64%
04:00 +21°C° 0 mm 1 mps 689 mmHg 65%
05:00 +21°C° 0 mm 1 mps 689 mmHg 66%
06:00 +23°C° 0 mm 1 mps 690 mmHg 56%
07:00 +24°C° 0 mm 0 mps 690 mmHg 47%
08:00 +26°C° 0 mm 0 mps 691 mmHg 38%
09:00 +30°C° 0 mm 1 mps 691 mmHg 32%
10:00 +32°C° 0 mm 2 mps 691 mmHg 26%
11:00 +35°C° 0 mm 3 mps 692 mmHg 20%
12:00 +36°C° 0 mm 4 mps 691 mmHg 19%
13:00 +37°C° 0 mm 5 mps 691 mmHg 17%
14:00 +39°C° 0 mm 5 mps 691 mmHg 15%
15:00 +38°C° 0 mm 6 mps 690 mmHg 16%
16:00 +36°C° 0 mm 6 mps 690 mmHg 17%
17:00 +35°C° 0 mm 7 mps 690 mmHg 18%
18:00 +32°C° 0 mm 6 mps 690 mmHg 32%
19:00 +29°C° 0 mm 5 mps 690 mmHg 45%
20:00 +26°C° 0 mm 4 mps 690 mmHg 58%
21:00 +25°C° 0 mm 4 mps 690 mmHg 62%
22:00 +24°C° 0 mm 3 mps 690 mmHg 66%
23:00 +22°C° 0 mm 3 mps 690 mmHg 70%

12 August, Wednesday

Time Temperature Precipitation Wind Pressure Humidity
00:00 +21°C° 0 mm 2 mps 689 mmHg 73%
01:00 +21°C° 0 mm 2 mps 689 mmHg 76%
02:00 +20°C° 0 mm 2 mps 688 mmHg 80%
03:00 +20°C° 0 mm 2 mps 688 mmHg 80%
04:00 +20°C° 0 mm 2 mps 688 mmHg 80%
05:00 +20°C° 0 mm 2 mps 688 mmHg 81%
06:00 +21°C° 0 mm 2 mps 688 mmHg 71%
07:00 +24°C° 0 mm 2 mps 689 mmHg 61%
08:00 +26°C° 0 mm 2 mps 689 mmHg 51%
09:00 +28°C° 0 mm 2 mps 689 mmHg 43%
10:00 +30°C° 0 mm 3 mps 690 mmHg 34%
11:00 +33°C° 0 mm 3 mps 690 mmHg 26%
12:00 +34°C° 0 mm 3 mps 689 mmHg 23%
13:00 +35°C° 0 mm 4 mps 689 mmHg 20%
14:00 +36°C° 0 mm 4 mps 689 mmHg 18%
15:00 +36°C° 0 mm 5 mps 689 mmHg 19%
16:00 +35°C° 0 mm 6 mps 689 mmHg 20%
17:00 +35°C° 0 mm 6 mps 689 mmHg 21%
18:00 +32°C° 0 mm 6 mps 689 mmHg 31%
19:00 +29°C° 0 mm 5 mps 689 mmHg 40%
20:00 +27°C° 0 mm 5 mps 689 mmHg 49%
21:00 +25°C° 0 mm 4 mps 689 mmHg 57%
22:00 +23°C° 0 mm 4 mps 688 mmHg 66%
23:00 +22°C° 0 mm 3 mps 688 mmHg 74%

13 August, Thursday

Time Temperature Precipitation Wind Pressure Humidity
00:00 +21°C° 0 mm 3 mps 688 mmHg 75%
01:00 +21°C° 0 mm 3 mps 688 mmHg 75%
02:00 +20°C° 0 mm 3 mps 687 mmHg 76%
03:00 +20°C° 0 mm 3 mps 687 mmHg 78%
04:00 +19°C° 0 mm 2 mps 687 mmHg 80%
05:00 +19°C° 0 mm 2 mps 687 mmHg 83%
06:00 +21°C° 0 mm 2 mps 688 mmHg 72%
07:00 +24°C° 0 mm 2 mps 688 mmHg 61%
08:00 +26°C° 0 mm 3 mps 689 mmHg 51%
09:00 +29°C° 0 mm 3 mps 689 mmHg 42%
10:00 +31°C° 0 mm 3 mps 689 mmHg 34%
11:00 +35°C° 0 mm 3 mps 689 mmHg 25%
12:00 +36°C° 0 mm 3 mps 689 mmHg 22%
13:00 +37°C° 0 mm 3 mps 688 mmHg 20%
14:00 +38°C° 0 mm 3 mps 688 mmHg 17%
15:00 +38°C° 0 mm 4 mps 688 mmHg 18%
16:00 +37°C° 0 mm 5 mps 688 mmHg 19%
17:00 +38°C° 0 mm 6 mps 687 mmHg 19%
18:00 +34°C° 0 mm 6 mps 687 mmHg 32%
19:00 +30°C° 0 mm 6 mps 687 mmHg 45%
20:00 +27°C° 0 mm 6 mps 687 mmHg 58%
21:00 +25°C° 0 mm 5 mps 687 mmHg 63%
22:00 +23°C° 0 mm 4 mps 687 mmHg 69%
23:00 +22°C° 0 mm 3 mps 687 mmHg 74%

14 August, Friday

Time Temperature Precipitation Wind Pressure Humidity
00:00 +22°C° 0 mm 3 mps 687 mmHg 76%
01:00 +21°C° 0 mm 3 mps 687 mmHg 77%
02:00 +21°C° 0 mm 2 mps 686 mmHg 79%
03:00 +21°C° 0 mm 2 mps 686 mmHg 78%
04:00 +20°C° 0 mm 2 mps 686 mmHg 77%
05:00 +20°C° 0 mm 2 mps 686 mmHg 76%
06:00 +24°C° 0 mm 2 mps 687 mmHg 63%
07:00 +26°C° 0 mm 2 mps 688 mmHg 50%
08:00 +29°C° 0 mm 3 mps 688 mmHg 37%
09:00 +31°C° 0 mm 3 mps 688 mmHg 32%
10:00 +34°C° 0 mm 3 mps 688 mmHg 26%
11:00 +36°C° 0 mm 4 mps 689 mmHg 21%
12:00 +37°C° 0 mm 3 mps 688 mmHg 19%
13:00 +37°C° 0 mm 3 mps 688 mmHg 18%
14:00 +38°C° 0 mm 3 mps 688 mmHg 16%
15:00 +38°C° 0 mm 4 mps 687 mmHg 17%
16:00 +37°C° 0 mm 5 mps 687 mmHg 18%
17:00 +38°C° 0 mm 6 mps 687 mmHg 19%
18:00 +34°C° 0 mm 6 mps 687 mmHg 25%
19:00 +32°C° 0 mm 6 mps 687 mmHg 31%
20:00 +28°C° 0 mm 5 mps 687 mmHg 36%
21:00 +27°C° 0 mm 4 mps 687 mmHg 39%
22:00 +26°C° 0 mm 3 mps 687 mmHg 41%
23:00 +25°C° 0 mm 2 mps 687 mmHg 44%
Show more